Header for Extended Forecast Station List Page

Search by: ID | Name | Date | Parm | Value | Avg | % Avg
Sort by: ID | Name | Date | Parm | Value | Avg | % Avg

Enter search or view all records.

Click on id for station plot
#IDNameDateParmValueAvg% Avg
0ABOM8CLARK FORK-ABOVE MISSOULA08-08-2022DISCHARGE (KAF)31333095
1AFRI1SNAKE-AMERICAN FALLS RESERVOIR08-08-2022INFLOW (KAF)13291176113
2ALFW1PEND OREILLE-ALBENI FALLS DAM08-08-2022INFLOW (KAF)32252969109
3ALPW4SNAKE-NEAR ALPINE08-08-2022DISCHARGE (KAF)64673588
4ANAW1SNAKE-NEAR ANATONE08-08-2022DISCHARGE (KAF)38483848100
5ANTI1HENRYS FORK-AT ST. ANTHONY08-08-2022DISCHARGE (KAF)30431796
6ARAI1SF BOISE-ANDERSON RANCH DAM08-08-2022INFLOW (KAF)7965122
7ARDW1ENTIAT-NEAR ARDENVOIR08-08-2022DISCHARGE (KAF)2826108
8BELM8CLARK FORK-BELOW MISSOULA08-08-2022DISCHARGE (KAF)49054490
9BERO3MALHEUR-AGENCY VALLEY DAM08-08-2022INFLOW (KAF)81263
10BFEI1KOOTENAI-AT BONNERS FERRY08-08-2022STAGE (FT)MMM
11BFTI1SNAKE-NEAR BLACKFOOT08-08-2022DISCHARGE (KAF)690610113
12BIGI1BOISE-AT GLENWOOD BRIDGE08-08-2022DISCHARGE (KAF)9611882
13BITM8BITTERROOT-NEAR MISSOULA08-08-2022DISCHARGE (KAF)17620486
14BONM8BLACKFOOT-NEAR BONNER08-08-2022DISCHARGE (KAF)12514785
15BONO3COLUMBIA-BONNEVILLE DAM08-08-2022INFLOW (KAF)2835528404100
16BRNI1SNAKE-BROWNLEE DAM08-08-2022INFLOW (KAF)27432623105
17BUDW1BUMPING-BUMPING LAKE DAM08-08-2022INFLOW (KAF)2925118
18BULO3BULLY CREEK-BULLY CREEK DAM08-08-2022INFLOW (KAF)10309
19CABI1CLARK FORK-CABINET GORGE DAM08-08-2022INFLOW (KAF)29842812106
20CFMM8FLATHEAD-AT COLUMBIA FALLS08-08-2022DISCHARGE (KAF)10371025101
21CHDW1CHELAN-LAKE CHELAN DAM08-08-2022INFLOW (KAF)234178131
22CHEI1FALL RIVER-NEAR CHESTER08-08-2022DISCHARGE (KAF)10410996
23CHJW1COLUMBIA-CHIEF JOSEPH DAM08-08-2022INFLOW (KAF)1947219498100
24CIBW1COLUMBIA-AT INTL BOUNDARY08-08-2022DISCHARGE (KAF)192701955799
25CLFW1NACHES-NEAR CLIFFDEL08-08-2022DISCHARGE (KAF)8383100
26CLUW1CLE ELUM-CLE ELUM LAKE08-08-2022INFLOW (KAF)10482126
27COEI1COEUR D ALENE-COEUR D ALENE LAKE08-08-2022INFLOW (KAF)23828185
28CSDI1NF PAYETTE-CASCADE DAM08-08-2022INFLOW (KAF)6866103
29DEDI1DEADWOOD-NEAR LOWMAN08-08-2022INFLOW (KAF)151787
30DLGM8CLARK FORK-AT DEER LODGE08-08-2022DISCHARGE (KAF)4841117
31DRMM8CLARK FORK-NR DRUMMOND08-08-2022DISCHARGE (KAF)115110105
32DWRI1NF CLEARWATER-DWORSHAK DAM08-08-2022INFLOW (KAF)30234887
33EASW1YAKIMA-AT EASTON08-08-2022DISCHARGE (KAF)556981
34EMMI1PAYETTE-NEAR EMMETT08-08-2022DISCHARGE (KAF)294252117
35FCFM8NF FLATHEAD-NEAR COLUMBIA FALLS08-08-2022DISCHARGE (KAF)257236109
36GCDW1COLUMBIA-GRAND COULEE DAM08-08-2022INFLOW (KAF)2006319088105
37GIBO3UMATILLA-NEAR GIBBON08-08-2022DISCHARGE (KAF)1514112
38HALI1BIG WOOD-AT HAILEY08-08-2022DISCHARGE (KAF)374287
39HEII1SNAKE-NEAR HEISE08-08-2022DISCHARGE (KAF)1215126496
40HHWM8SF FLATHEAD-HUNGRY HORSE DAM08-08-2022INFLOW (KAF)210207102
41HODO3HOOD-NEAR TUCKER BRIDGE08-08-2022DISCHARGE (KAF)139109127
42HOPI1PEND OREILLE-PEND OREILLE LAKE NR HOPE08-08-2022LAKE ELEVATION (FT)MMM
43HOTI1BRUNEAU-NEAR HOT SPRINGS08-08-2022DISCHARGE (KAF)151691
44HWRI1BIG LOST-AT HOWELL RANCH NEAR CHILLY08-08-2022DISCHARGE (KAF)232686
45IHDW1SNAKE-ICE HARBOR DAM08-08-2022INFLOW (KAF)54075350101
46IPDI1HENRYS FORK-ISLAND PARK DAM08-08-2022INFLOW (KAF)136120113
47JDAO3COLUMBIA-JOHN DAY DAM08-08-2022INFLOW (KAF)2710026923101
48JKSW4SNAKE-NEAR JACKSON08-08-2022DISCHARGE (KAF)54262487
49JLKW4SNAKE-JACKSON LAKE AT DAM08-08-2022INFLOW (KAF)134120112
50KADW1KACHESS-KACHESS DAM08-08-2022INFLOW (KAF)3532108
51KEDW1YAKIMA-KEECHELUS LAKE08-08-2022INFLOW (KAF)4936135
52KERM8FLATHEAD-SELI’Š KSANKA QLISPE’ DAM08-08-2022INFLOW (KAF)1179125994
53KIOW1YAKIMA-AT KIONA08-08-2022DISCHARGE (KAF)45249791
54LAUW1KETTLE-AT LAURIER08-08-2022DISCHARGE (KAF)10010397
55LEOI1KOOTENAI-AT LEONIA08-08-2022DISCHARGE (KAF)25942333111
56LGDW1SNAKE-LOWER GRANITE DAM08-08-2022INFLOW (KAF)53925324101
57LGSW1SNAKE-LITTLE GOOSE DAM08-08-2022INFLOW (KAF)53925336101
58LLKW1SPOKANE-AT LONGLAKE08-08-2022INFLOW (KAF)628622101
59LMNW1SNAKE-LOWER MONUMENTAL DAM08-08-2022INFLOW (KAF)54075338101
60LUCI1BOISE-LUCKY PEAK DAM08-08-2022INFLOW (KAF)21422396
61LWRI1LITTLE WOOD-LITTLE WOOD DAM08-08-2022INFLOW (KAF)1211109
62LYDM8KOOTENAI-LIBBY DAM08-08-2022INFLOW (KAF)14331295111
63MACI1BIG LOST-MACKAY RESERVOIR NEAR MACKAY08-08-2022INFLOW (KAF)344477
64MAGI1BIG WOOD-MAGIC DAM08-08-2022INFLOW (KAF)152463
65MCDW1COLUMBIA-MCNARY DAM08-08-2022INFLOW (KAF)265052665899
66MILI1SNAKE-AT MILNER08-08-2022DISCHARGE (KAF)364091
67MODO3DESCHUTES-AT MOODY NR BIGGS08-08-2022DISCHARGE (KAF)1130113999
68MONO3NF JOHN DAY-AT MONUMENT08-08-2022DISCHARGE (KAF)333399
69MYKO3MCKAY CREEK-NEAR PILOT ROCK08-08-2022DISCHARGE (KAF)42203
70NACW1NACHES-NEAR NACHES08-08-2022DISCHARGE (KAF)5719929
71NOXM8CLARK FORK-NOXON RAPIDS DAM08-08-2022INFLOW (KAF)27112554106
72ORFI1CLEARWATER-AT OROFINO08-08-2022DISCHARGE (KAF)45046896
73OWYO3OWYHEE-OWYHEE DAM08-08-2022INFLOW (KAF)596295
74PARI1BOISE-NEAR PARMA08-08-2022DISCHARGE (KAF)18320490
75PARW1YAKIMA-NEAR PARKER08-08-2022DISCHARGE (KAF)18624277
76PATW1METHOW-NEAR PATEROS08-08-2022DISCHARGE (KAF)115106109
77PDTO3UMATILLA-AT PENDLETON08-08-2022DISCHARGE (KAF)2319119
78PESW1WENATCHEE-AT PESHASTIN08-08-2022DISCHARGE (KAF)292242121
79PIHI1PORTNEUF-AT POCATELLO08-08-2022DISCHARGE (KAF)3030101
80PITW1KLICKITAT-NEAR PITT08-08-2022DISCHARGE (KAF)236186127
81PLDI1SF SNAKE-PALISADES DAM08-08-2022INFLOW (KAF)897100290
82PRTI1PRIEST-NEAR PRIEST RIVER08-08-2022DISCHARGE (KAF)194185105
83PRWW1COLUMBIA-PRIEST RAPIDS DAM08-08-2022INFLOW (KAF)205392090398
84RCCM8ROCK CREEK-NEAR CLINTON08-08-2022DISCHARGE (KAF)5957102
85REXI1HENRYS FORK-AT REXBURG08-08-2022DISCHARGE (KAF)382341112
86RIDI1WILLOW CREEK-RIRIE DAM08-08-2022INFLOW (KAF)3748
87RILW1TIETON-RIMROCK LAKE NEAR RIMROCK08-08-2022INFLOW (KAF)7162114
88RRHW1COLUMBIA-ROCKY REACH DAM08-08-2022INFLOW (KAF)202332044299
89SATI1ST MARIES-NEAR SANTA08-08-2022DISCHARGE (KAF)151785
90SERO3JOHN DAY-AT SERVICE CK08-08-2022DISCHARGE (KAF)6363101
91SHYI1SNAKE-NEAR SHELLEY08-08-2022DISCHARGE (KAF)962963100
92SIFI1SNAKE-AB EAGLE ROCK NR IDAHO FALLS08-08-2022DISCHARGE (KAF)1039993105
93SJMI1ST JOE-AT ST MARIES08-08-2022STAGE (FT)MMM
94SNAI1SNAKE-AT BLACKFOOT08-08-2022DISCHARGE (KAF)680627109
95SPDI1CLEARWATER-AT SPALDING08-08-2022DISCHARGE (KAF)15531403111
96SPOW1SPOKANE-AT SPOKANE08-08-2022DISCHARGE (KAF)46347598
97SRGM8CLARK FORK-AT ST REGIS08-08-2022DISCHARGE (KAF)64070291
98STRM8ST. REGIS-NEAR ST. REGIS08-08-2022DISCHARGE (KAF)272799
99SWAI1SNAKE-BELOW SWAN FALLS08-08-2022DISCHARGE (KAF)1717174299
100TCHW1WALLA WALLA-NEAR TOUCHET08-08-2022DISCHARGE (KAF)3722166
101TDAO3COLUMBIA-THE DALLES DAM08-08-2022INFLOW (KAF)2781327539101
102TEAI1TETON-NEAR ST. ANTHONY08-08-2022DISCHARGE (KAF)12913397
103TNAW1TEANAWAY-BELOW FORKS08-08-2022DISCHARGE (KAF)1514110
104TONW1OKANOGAN-NEAR TONASKET08-08-2022DISCHARGE (KAF)334265126
105TRYO3GRANDE RONDE-TROY08-08-2022DISCHARGE (KAF)15217885
106UMAO3UMATILLA-NEAR UMATILLA08-08-2022DISCHARGE (KAF)7543174
107UMTW1YAKIMA-AT UMTANUM08-08-2022DISCHARGE (KAF)451419108
108UNDW1WHITE SALMON-NEAR UNDERWOOD08-08-2022DISCHARGE (KAF)181154118
109WANW1COLUMBIA-WANAPUM DAM08-08-2022INFLOW (KAF)205372081299
110WEII1SNAKE-AT WEISER08-08-2022DISCHARGE (KAF)25642552100
111WELW1COLUMBIA-WELLS DAM08-08-2022INFLOW (KAF)199402004999
112WGCM8MF FLATHEAD-NEAR WEST GLACIER08-08-2022DISCHARGE (KAF)207192108
113WHBI1SALMON-AT WHITEBIRD08-08-2022DISCHARGE (KAF)1031105498
114WRMO3MALHEUR-WARM SPRINGS DAM08-08-2022INFLOW (KAF)1310131
115WSRI1WEISER-NEAR WEISER08-08-2022DISCHARGE (KAF)4342103